Time,TemperatureF,DewpointF,PressureIn,WindDirection,WindDirectionDegrees,WindSpeedMPH,WindSpeedGustMPH,Humidity,HourlyPrecipIn,Conditions,Clouds,dailyrainin,SoftwareType,DateUTC
2013-04-24 00:02:00,57.0,13.0,30.32,NNW,328,3.0,-999.0,17,-99.99,,,-99.99,,2013-04-24 07:02:00,
2013-04-24 00:11:00,57.0,13.0,30.32,NNW,328,3.0,-999.0,17,-99.99,,,-99.99,,2013-04-24 07:11:00,
2013-04-24 00:21:00,61.0,14.0,30.32,West,280,4.0,-999.0,16,-99.99,,,-99.99,,2013-04-24 07:21:00,
2013-04-24 00:31:00,63.0,16.0,30.32,WNW,282,6.0,-999.0,16,-99.99,,,-99.99,,2013-04-24 07:31:00,
2013-04-24 00:41:00,63.0,16.0,30.32,WNW,282,6.0,-999.0,16,-99.99,,,-99.99,,2013-04-24 07:41:00,
2013-04-24 00:52:00,64.0,18.0,30.31,West,263,6.0,-999.0,17,-99.99,,,-99.99,,2013-04-24 07:52:00,
2013-04-24 01:01:00,63.0,19.0,30.33,WNW,296,6.0,-999.0,18,-99.99,,,-99.99,,2013-04-24 08:01:00,
2013-04-24 01:11:00,63.0,19.0,30.33,WNW,296,6.0,-999.0,18,-99.99,,,-99.99,,2013-04-24 08:11:00,
2013-04-24 01:21:00,62.0,19.0,30.32,WNW,285,5.0,-999.0,19,-99.99,,,-99.99,,2013-04-24 08:21:00,
2013-04-24 01:33:00,60.0,19.0,30.32,WNW,292,4.0,-999.0,20,-99.99,,,-99.99,,2013-04-24 08:33:00,
2013-04-24 01:42:00,60.0,19.0,30.32,WNW,292,4.0,-999.0,20,-99.99,,,-99.99,,2013-04-24 08:42:00,
2013-04-24 01:52:00,59.0,18.0,30.33,WNW,299,4.0,-999.0,20,-99.99,,,-99.99,,2013-04-24 08:52:00,
2013-04-24 02:01:00,62.0,18.0,30.32,WNW,291,4.0,-999.0,18,-99.99,,,-99.99,,2013-04-24 09:01:00,
2013-04-24 02:21:00,59.0,18.0,30.33,WNW,287,4.0,-999.0,20,-99.99,,,-99.99,,2013-04-24 09:21:00,
2013-04-24 02:32:00,56.0,19.0,30.32,West,272,4.0,-999.0,23,-99.99,,,-99.99,,2013-04-24 09:32:00,
2013-04-24 02:42:00,56.0,19.0,30.32,West,272,4.0,-999.0,23,-99.99,,,-99.99,,2013-04-24 09:42:00,
2013-04-24 02:53:00,57.0,20.0,30.31,West,275,2.0,-999.0,23,-99.99,,,-99.99,,2013-04-24 09:53:00,
2013-04-24 03:02:00,59.0,20.0,30.33,NW,323,2.0,-999.0,22,-99.99,,,-99.99,,2013-04-24 10:02:00,
2013-04-24 03:12:00,59.0,20.0,30.33,NW,323,2.0,-999.0,22,-99.99,,,-99.99,,2013-04-24 10:12:00,
2013-04-24 03:22:00,59.0,19.0,30.33,NW,323,0.0,-999.0,21,-99.99,,,-99.99,,2013-04-24 10:22:00,
2013-04-24 03:32:00,57.0,19.0,30.34,NW,323,1.0,-999.0,22,-99.99,,,-99.99,,2013-04-24 10:32:00,
2013-04-24 03:42:00,57.0,19.0,30.34,NW,323,1.0,-999.0,22,-99.99,,,-99.99,,2013-04-24 10:42:00,
2013-04-24 03:53:00,57.0,20.0,30.32,NW,323,1.0,-999.0,23,-99.99,,,-99.99,,2013-04-24 10:53:00,
2013-04-24 04:02:00,55.0,20.0,30.32,NW,323,0.0,-999.0,25,-99.99,,,-99.99,,2013-04-24 11:02:00,
2013-04-24 04:11:00,55.0,20.0,30.32,NW,323,0.0,-999.0,25,-99.99,,,-99.99,,2013-04-24 11:11:00,
2013-04-24 04:21:00,52.0,20.0,30.33,NW,323,0.0,-999.0,28,-99.99,,,-99.99,,2013-04-24 11:21:00,
2013-04-24 04:31:00,51.0,19.0,30.33,NW,323,2.0,-999.0,28,-99.99,,,-99.99,,2013-04-24 11:31:00,
2013-04-24 04:42:00,51.0,19.0,30.33,NW,323,2.0,-999.0,28,-99.99,,,-99.99,,2013-04-24 11:42:00,
2013-04-24 04:52:00,51.0,18.0,30.32,NW,320,3.0,-999.0,27,-99.99,,,-99.99,,2013-04-24 11:52:00,
2013-04-24 05:01:00,52.0,20.0,30.31,NW,320,1.0,-999.0,28,-99.99,,,-99.99,,2013-04-24 12:01:00,
2013-04-24 05:11:00,52.0,20.0,30.31,NW,320,1.0,-999.0,28,-99.99,,,-99.99,,2013-04-24 12:11:00,
2013-04-24 05:22:00,52.0,19.0,30.31,NW,320,3.0,-999.0,27,-99.99,,,-99.99,,2013-04-24 12:22:00,
2013-04-24 05:31:00,52.0,19.0,30.33,NW,320,1.0,-999.0,27,-99.99,,,-99.99,,2013-04-24 12:31:00,
2013-04-24 05:42:00,52.0,19.0,30.33,NW,320,1.0,-999.0,27,-99.99,,,-99.99,,2013-04-24 12:42:00,
2013-04-24 05:52:00,51.0,20.0,30.33,NW,320,2.0,-999.0,29,-99.99,,,-99.99,,2013-04-24 12:52:00,
2013-04-24 06:01:00,51.0,19.0,30.35,NW,322,1.0,-999.0,28,-99.99,,,-99.99,,2013-04-24 13:01:00,
2013-04-24 06:12:00,51.0,19.0,30.35,NW,322,1.0,-999.0,28,-99.99,,,-99.99,,2013-04-24 13:12:00,
2013-04-24 06:22:00,54.0,22.0,30.34,NW,322,0.0,-999.0,28,-99.99,,,-99.99,,2013-04-24 13:22:00,
2013-04-24 06:31:00,57.0,22.0,30.33,North,-999,-999.0,-999.0,25,-99.99,,,-99.99,,2013-04-24 13:31:00,
2013-04-24 06:41:00,57.0,22.0,30.33,North,-999,-999.0,-999.0,25,-99.99,,,-99.99,,2013-04-24 13:41:00,
2013-04-24 07:21:00,61.0,21.0,30.35,NE,54,3.0,-999.0,21,-99.99,,,-99.99,,2013-04-24 14:21:00,
2013-04-24 07:31:00,61.0,22.0,30.36,NNE,28,3.0,-999.0,22,-99.99,,,-99.99,,2013-04-24 14:31:00,
2013-04-24 07:41:00,61.0,22.0,30.36,NNE,28,3.0,-999.0,22,-99.99,,,-99.99,,2013-04-24 14:41:00,
2013-04-24 07:51:00,62.0,20.0,30.37,NNE,31,4.0,-999.0,20,-99.99,,,-99.99,,2013-04-24 14:51:00,
2013-04-24 08:01:00,63.0,21.0,30.36,NNE,31,1.0,-999.0,20,-99.99,,,-99.99,,2013-04-24 15:01:00,
2013-04-24 08:11:00,63.0,21.0,30.36,NNE,31,1.0,-999.0,20,-99.99,,,-99.99,,2013-04-24 15:11:00,
2013-04-24 08:21:00,65.0,23.0,30.36,ENE,64,5.0,-999.0,20,-99.99,,,-99.99,,2013-04-24 15:21:00,
2013-04-24 08:32:00,66.0,24.0,30.35,North,-999,-999.0,-999.0,20,-99.99,,,-99.99,,2013-04-24 15:32:00,
2013-04-24 08:42:00,66.0,24.0,30.35,North,-999,-999.0,-999.0,20,-99.99,,,-99.99,,2013-04-24 15:42:00,
2013-04-24 08:53:00,69.0,26.0,30.36,North,-999,-999.0,-999.0,20,-99.99,,,-99.99,,2013-04-24 15:53:00,
2013-04-24 09:03:00,70.0,20.0,30.36,ESE,123,4.0,-999.0,15,-99.99,,,-99.99,,2013-04-24 16:03:00,
2013-04-24 09:12:00,70.0,20.0,30.36,ESE,123,4.0,-999.0,15,-99.99,,,-99.99,,2013-04-24 16:12:00,
2013-04-24 09:23:00,72.0,22.0,30.36,North,-999,-999.0,-999.0,15,-99.99,,,-99.99,,2013-04-24 16:23:00,
2013-04-24 09:32:00,73.0,19.0,30.35,SE,130,11.0,-999.0,13,-99.99,,,-99.99,,2013-04-24 16:32:00,
2013-04-24 09:42:00,73.0,19.0,30.36,South,169,10.0,-999.0,13,-99.99,,,-99.99,,2013-04-24 16:42:00,
2013-04-24 09:52:00,73.0,19.0,30.36,South,169,10.0,-999.0,13,-99.99,,,-99.99,,2013-04-24 16:52:00,
2013-04-24 10:02:00,73.0,19.0,30.36,North,-999,-999.0,-999.0,13,-99.99,,,-99.99,,2013-04-24 17:02:00,
2013-04-24 10:12:00,73.0,19.0,30.36,North,-999,-999.0,-999.0,13,-99.99,,,-99.99,,2013-04-24 17:12:00,
2013-04-24 10:22:00,75.0,21.0,30.37,North,-999,-999.0,-999.0,13,-99.99,,,-99.99,,2013-04-24 17:22:00,
2013-04-24 10:32:00,74.0,20.0,30.35,North,-999,-999.0,-999.0,13,-99.99,,,-99.99,,2013-04-24 17:32:00,
2013-04-24 10:42:00,74.0,20.0,30.35,North,-999,-999.0,-999.0,13,-99.99,,,-99.99,,2013-04-24 17:42:00,
2013-04-24 10:51:00,74.0,20.0,30.34,North,-999,-999.0,-999.0,13,-99.99,,,-99.99,,2013-04-24 17:51:00,
2013-04-24 11:01:00,75.0,21.0,30.36,North,-999,-999.0,-999.0,13,-99.99,,,-99.99,,2013-04-24 18:01:00,
2013-04-24 11:12:00,75.0,21.0,30.36,North,-999,-999.0,-999.0,13,-99.99,,,-99.99,,2013-04-24 18:12:00,
2013-04-24 11:21:00,75.0,21.0,30.36,SE,141,12.0,-999.0,13,-99.99,,,-99.99,,2013-04-24 18:21:00,
2013-04-24 11:32:00,75.0,21.0,30.36,SE,141,12.0,-999.0,13,-99.99,,,-99.99,,2013-04-24 18:32:00,
2013-04-24 11:42:00,75.0,21.0,30.36,SE,141,12.0,-999.0,13,-99.99,,,-99.99,,2013-04-24 18:42:00,
2013-04-24 11:52:00,77.0,18.0,30.33,North,-999,-999.0,-999.0,11,-99.99,,,-99.99,,2013-04-24 18:52:00,
2013-04-24 12:01:00,78.0,17.0,30.33,WSW,247,10.0,-999.0,10,-99.99,,,-99.99,,2013-04-24 19:01:00,
2013-04-24 12:11:00,78.0,17.0,30.33,WSW,247,10.0,-999.0,10,-99.99,,,-99.99,,2013-04-24 19:11:00,
2013-04-24 12:21:00,78.0,17.0,30.34,West,263,13.0,-999.0,10,-99.99,,,-99.99,,2013-04-24 19:21:00,
2013-04-24 12:31:00,78.0,17.0,30.32,West,280,13.0,-999.0,10,-99.99,,,-99.99,,2013-04-24 19:31:00,
2013-04-24 12:41:00,78.0,17.0,30.32,West,280,13.0,-999.0,10,-99.99,,,-99.99,,2013-04-24 19:41:00,
2013-04-24 12:52:00,78.0,17.0,30.32,WSW,250,11.0,-999.0,10,-99.99,,,-99.99,,2013-04-24 19:52:00,
2013-04-24 13:01:00,79.0,15.0,30.32,SSE,165,9.0,-999.0,9,-99.99,,,-99.99,,2013-04-24 20:01:00,
2013-04-24 13:11:00,79.0,15.0,30.32,SSE,165,9.0,-999.0,9,-99.99,,,-99.99,,2013-04-24 20:11:00,
2013-04-24 13:21:00,80.0,16.0,30.32,West,265,11.0,-999.0,9,-99.99,,,-99.99,,2013-04-24 20:21:00,
2013-04-24 13:32:00,79.0,18.0,30.32,SSW,206,9.0,-999.0,10,-99.99,,,-99.99,,2013-04-24 20:32:00,
2013-04-24 13:42:00,79.0,18.0,30.32,SSW,206,9.0,-999.0,10,-99.99,,,-99.99,,2013-04-24 20:42:00,
2013-04-24 13:52:00,80.0,16.0,30.31,WNW,292,8.0,-999.0,9,-99.99,,,-99.99,,2013-04-24 20:52:00,
2013-04-24 14:01:00,80.0,19.0,30.30,WNW,289,12.0,-999.0,10,-99.99,,,-99.99,,2013-04-24 21:01:00,
2013-04-24 14:11:00,80.0,19.0,30.30,WNW,289,12.0,-999.0,10,-99.99,,,-99.99,,2013-04-24 21:11:00,
2013-04-24 14:21:00,79.0,18.0,30.30,SW,229,7.0,-999.0,10,-99.99,,,-99.99,,2013-04-24 21:21:00,
2013-04-24 14:32:00,81.0,17.0,30.29,WSW,258,8.0,-999.0,9,-99.99,,,-99.99,,2013-04-24 21:32:00,
2013-04-24 14:42:00,81.0,17.0,30.29,WSW,258,8.0,-999.0,9,-99.99,,,-99.99,,2013-04-24 21:42:00,
2013-04-24 14:52:00,81.0,17.0,30.28,WSW,248,7.0,-999.0,9,-99.99,,,-99.99,,2013-04-24 21:52:00,
2013-04-24 15:02:00,81.0,17.0,30.28,WNW,299,11.0,-999.0,9,-99.99,,,-99.99,,2013-04-24 22:02:00,
2013-04-24 15:12:00,81.0,17.0,30.28,WNW,299,11.0,-999.0,9,-99.99,,,-99.99,,2013-04-24 22:12:00,
2013-04-24 15:22:00,82.0,12.0,30.27,WNW,288,10.0,-999.0,7,-99.99,,,-99.99,,2013-04-24 22:22:00,
2013-04-24 15:32:00,82.0,15.0,30.28,NW,306,8.0,-999.0,8,-99.99,,,-99.99,,2013-04-24 22:32:00,
2013-04-24 15:42:00,82.0,15.0,30.28,NW,306,8.0,-999.0,8,-99.99,,,-99.99,,2013-04-24 22:42:00,
2013-04-24 15:52:00,83.0,16.0,30.26,NW,318,5.0,-999.0,8,-99.99,,,-99.99,,2013-04-24 22:52:00,
2013-04-24 16:02:00,83.0,16.0,30.26,NW,318,5.0,-999.0,8,-99.99,,,-99.99,,2013-04-24 23:02:00,
2013-04-24 16:12:00,83.0,16.0,30.26,NW,318,5.0,-999.0,8,-99.99,,,-99.99,,2013-04-24 23:12:00,
2013-04-24 16:21:00,82.0,15.0,30.26,West,280,8.0,-999.0,8,-99.99,,,-99.99,,2013-04-24 23:21:00,
2013-04-24 16:32:00,82.0,15.0,30.26,West,275,7.0,-999.0,8,-99.99,,,-99.99,,2013-04-24 23:32:00,
2013-04-24 16:42:00,82.0,15.0,30.26,West,275,7.0,-999.0,8,-99.99,,,-99.99,,2013-04-24 23:42:00,
2013-04-24 16:52:00,82.0,15.0,30.25,WSW,250,7.0,-999.0,8,-99.99,,,-99.99,,2013-04-24 23:52:00,
2013-04-24 17:01:00,81.0,14.0,30.26,West,271,7.0,-999.0,8,-99.99,,,-99.99,,2013-04-25 00:01:00,
2013-04-24 17:12:00,81.0,14.0,30.26,West,271,7.0,-999.0,8,-99.99,,,-99.99,,2013-04-25 00:12:00,
2013-04-24 17:22:00,81.0,11.0,30.26,West,271,6.0,-999.0,7,-99.99,,,-99.99,,2013-04-25 00:22:00,
2013-04-24 17:32:00,80.0,10.0,30.26,West,275,8.0,-999.0,7,-99.99,,,-99.99,,2013-04-25 00:32:00,
2013-04-24 17:41:00,80.0,10.0,30.26,West,275,8.0,-999.0,7,-99.99,,,-99.99,,2013-04-25 00:41:00,
2013-04-24 17:52:00,80.0,10.0,30.26,WNW,284,8.0,-999.0,7,-99.99,,,-99.99,,2013-04-25 00:52:00,
2013-04-24 18:01:00,79.0,10.0,30.27,WNW,296,8.0,-999.0,7,-99.99,,,-99.99,,2013-04-25 01:01:00,
2013-04-24 18:11:00,79.0,10.0,30.27,WNW,296,8.0,-999.0,7,-99.99,,,-99.99,,2013-04-25 01:11:00,
2013-04-24 18:22:00,78.0,9.0,30.25,West,280,7.0,-999.0,7,-99.99,,,-99.99,,2013-04-25 01:22:00,
2013-04-24 18:41:00,78.0,9.0,30.25,West,280,7.0,-999.0,7,-99.99,,,-99.99,,2013-04-25 01:41:00,
2013-04-24 18:52:00,78.0,9.0,30.25,West,280,7.0,-999.0,7,-99.99,,,-99.99,,2013-04-25 01:52:00,
2013-04-24 19:01:00,78.0,9.0,30.25,West,280,7.0,-999.0,7,-99.99,,,-99.99,,2013-04-25 02:01:00,
2013-04-24 19:22:00,76.0,13.0,30.29,NW,313,7.0,-999.0,9,-99.99,,,-99.99,,2013-04-25 02:22:00,
2013-04-24 19:32:00,75.0,12.0,30.28,WNW,287,4.0,-999.0,9,-99.99,,,-99.99,,2013-04-25 02:32:00,
2013-04-24 19:42:00,75.0,12.0,30.28,WNW,287,4.0,-999.0,9,-99.99,,,-99.99,,2013-04-25 02:42:00,
2013-04-24 19:51:00,75.0,12.0,30.28,WNW,287,4.0,-999.0,9,-99.99,,,-99.99,,2013-04-25 02:51:00,
2013-04-24 20:02:00,75.0,12.0,30.32,West,270,11.0,-999.0,9,-99.99,,,-99.99,,2013-04-25 03:02:00,
2013-04-24 20:11:00,75.0,12.0,30.32,West,270,11.0,-999.0,9,-99.99,,,-99.99,,2013-04-25 03:11:00,
2013-04-24 20:21:00,74.0,12.0,30.33,WNW,289,9.0,-999.0,9,-99.99,,,-99.99,,2013-04-25 03:21:00,
2013-04-24 20:32:00,74.0,9.0,30.32,WSW,251,10.0,-999.0,8,-99.99,,,-99.99,,2013-04-25 03:32:00,
2013-04-24 20:42:00,74.0,9.0,30.32,WSW,251,10.0,-999.0,8,-99.99,,,-99.99,,2013-04-25 03:42:00,
2013-04-24 20:52:00,73.0,8.0,30.31,WNW,299,6.0,-999.0,8,-99.99,,,-99.99,,2013-04-25 03:52:00,
2013-04-24 21:02:00,73.0,11.0,30.32,NW,316,2.0,-999.0,9,-99.99,,,-99.99,,2013-04-25 04:02:00,
2013-04-24 21:12:00,72.0,10.0,30.33,NW,315,3.0,-999.0,9,-99.99,,,-99.99,,2013-04-25 04:12:00,
2013-04-24 21:22:00,72.0,10.0,30.33,NW,315,3.0,-999.0,9,-99.99,,,-99.99,,2013-04-25 04:22:00,
2013-04-24 21:32:00,73.0,8.0,30.32,WSW,253,14.0,-999.0,8,-99.99,,,-99.99,,2013-04-25 04:32:00,
2013-04-24 21:42:00,73.0,8.0,30.32,WSW,253,14.0,-999.0,8,-99.99,,,-99.99,,2013-04-25 04:42:00,
2013-04-24 21:52:00,73.0,8.0,30.31,WSW,244,9.0,-999.0,8,-99.99,,,-99.99,,2013-04-25 04:52:00,
2013-04-24 22:02:00,72.0,7.0,30.31,WNW,289,5.0,-999.0,8,-99.99,,,-99.99,,2013-04-25 05:02:00,
2013-04-24 22:11:00,72.0,7.0,30.31,WNW,289,5.0,-999.0,8,-99.99,,,-99.99,,2013-04-25 05:11:00,
2013-04-24 22:21:00,70.0,9.0,30.30,WSW,257,3.0,-999.0,9,-99.99,,,-99.99,,2013-04-25 05:21:00,
2013-04-24 22:31:00,69.0,10.0,30.31,SSW,195,4.0,-999.0,10,-99.99,,,-99.99,,2013-04-25 05:31:00,
2013-04-24 22:42:00,69.0,10.0,30.31,SSW,195,4.0,-999.0,10,-99.99,,,-99.99,,2013-04-25 05:42:00,
2013-04-24 22:52:00,70.0,9.0,30.31,SSE,158,8.0,-999.0,9,-99.99,,,-99.99,,2013-04-25 05:52:00,
2013-04-24 23:01:00,70.0,11.0,30.31,SSE,160,5.0,-999.0,10,-99.99,,,-99.99,,2013-04-25 06:01:00,
2013-04-24 23:11:00,70.0,11.0,30.31,SSE,160,5.0,-999.0,10,-99.99,,,-99.99,,2013-04-25 06:11:00,
2013-04-24 23:22:00,68.0,12.0,30.31,SSE,160,2.0,-999.0,11,-99.99,,,-99.99,,2013-04-25 06:22:00,
2013-04-24 23:31:00,68.0,12.0,30.30,SSE,160,0.0,-999.0,11,-99.99,,,-99.99,,2013-04-25 06:31:00,
2013-04-24 23:41:00,68.0,12.0,30.30,SSE,160,0.0,-999.0,11,-99.99,,,-99.99,,2013-04-25 06:41:00,
2013-04-24 23:52:00,66.0,10.0,30.32,SSE,160,2.0,-999.0,11,-99.99,,,-99.99,,2013-04-25 06:52:00,